FW5165 Weather Reports


Display with metric or nautical units.
time (UTC)temp
F
wind
direction
speed
MPH
gust
MPH
rain 1hr
in
rain 24hr
in
rain mn
in
humidity
%
barometer
mb
20220126133038 48 74 0.0 2.0 0.00 0.00 0.00 47 1022.6
20220126132520 48 74 1.0 3.0 0.00 0.00 0.00 46 1022.6
20220126132019 48 74 1.0 3.0 0.00 0.00 0.00 45 1022.5
20220126131522 47 73 2.0 3.0 0.00 0.00 0.00 45 1022.5
20220126131017 47 80 1.0 5.0 0.00 0.00 0.00 46 1022.4
20220126130516 46 79 3.0 5.0 0.00 0.00 0.00 47 1022.4
20220126125515 46 77 1.0 3.0 0.00 0.00 0.00 48 1022.3
20220126125021 46 78 2.0 5.0 0.00 0.00 0.00 48 1022.2
20220126124522 46 51 3.0 5.0 0.00 0.00 0.00 48 1022.1
20220126124013 47 70 4.0 5.0 0.00 0.00 0.00 47 1022.2
20220126123513 47 72 3.0 5.0 0.00 0.00 0.00 47 1022.1
20220126123022 47 70 4.0 5.0 0.00 0.00 0.00 47 1022.1
20220126122514 47 74 3.0 6.0 0.00 0.00 0.00 47 1022.0
20220126122017 47 56 4.0 6.0 0.00 0.00 0.00 47 1022.1
20220126121512 47 57 4.0 5.0 0.00 0.00 0.00 48 1022.0
20220126121012 47 74 3.0 5.0 0.00 0.00 0.00 49 1022.0
20220126120509 46 71 2.0 5.0 0.00 0.00 0.00 50 1022.1
20220126120009 46 57 3.0 6.0 0.00 0.00 0.00 51 1022.0
20220126115515 47 51 4.0 6.0 0.00 0.00 0.00 51 1022.1
20220126115007 47 59 3.0 5.0 0.00 0.00 0.00 51 1022.0
20220126114518 47 69 4.0 5.0 0.00 0.00 0.00 50 1022.0
20220126114006 47 64 4.0 5.0 0.00 0.00 0.00 50 1022.0
20220126113505 47 66 3.0 5.0 0.00 0.00 0.00 49 1022.0
20220126113011 47 64 3.0 5.0 0.00 0.00 0.00 49 1022.0
20220126112503 48 71 2.0 5.0 0.00 0.00 0.00 49 1022.1
20220126112006 48 69 3.0 5.0 0.00 0.00 0.00 50 1022.0
20220126111503 48 68 2.0 5.0 0.00 0.00 0.00 50 1022.0
20220126111002 49 69 2.0 5.0 0.00 0.00 0.00 49 1022.0
20220126110505 48 72 3.0 5.0 0.00 0.00 0.00 50 1022.1
20220126110010 48 65 3.0 4.0 0.00 0.00 0.00 52 1022.0
20220126105100 48 83 2.0 5.0 0.00 0.00 0.00 51 1022.1
20220126105003 48 83 3.0 5.0 0.00 0.00 0.00 51 1022.1
20220126104731 48 98 3.0 5.0 0.00 0.00 0.00 52 1022.0
20220126104100 48 105 3.0 4.0 0.00 0.00 0.00 54 1022.1
20220126103600 48 15 0.0 2.0 0.00 0.00 0.00 55 1022.1
20220126103254 48 15 0.0 5.0 0.00 0.00 0.00 55 1022.2
20220126102558 49 15 1.0 5.0 0.00 0.00 0.00 53 1022.2
20220126102102 49 15 3.0 5.0 0.00 0.00 0.00 53 1022.1
20220126101608 49 15 2.0 6.0 0.00 0.00 0.00 53 1022.1
20220126101103 49 15 3.0 6.0 0.00 0.00 0.00 56 1021.9
20220126100555 49 15 3.0 4.0 0.00 0.00 0.00 57 1022.0
20220126100156 49 15 1.0 3.0 0.00 0.00 0.00 60 1022.0
20220126095554 48 15 1.0 3.0 0.00 0.00 0.00 61 1021.9
20220126095053 48 15 2.0 5.0 0.00 0.00 0.00 63 1021.9
20220126094736 48 15 3.0 5.0 0.00 0.00 0.00 66 1021.9
20220126094056 48 15 2.0 5.0 0.00 0.00 0.00 66 1021.8
20220126093550 48 15 4.0 6.0 0.00 0.00 0.00 69 1021.7
20220126093130 48 15 4.0 6.0 0.00 0.00 0.00 71 1021.7
20220126092549 47 14 2.0 5.0 0.00 0.00 0.00 72 1021.6
20220126092105 48 5 3.0 5.0 0.00 0.00 0.00 71 1021.7
20220126091631 48 5 1.0 4.0 0.00 0.00 0.00 71 1021.6
20220126091054 48 5 1.0 5.0 0.00 0.00 0.00 72 1021.6
20220126090548 48 360 1.0 5.0 0.00 0.00 0.00 72 1021.5
20220126090110 48 103 1.0 4.0 0.00 0.00 0.00 72 1021.4
20220126085543 49 109 1.0 5.0 0.00 0.00 0.00 71 1021.4
20220126085043 49 107 1.0 5.0 0.00 0.00 0.00 72 1021.4
20220126084620 49 92 2.0 4.0 0.00 0.00 0.00 72 1021.5
20220126084041 49 34 1.0 3.0 0.00 0.00 0.00 72 1021.4
20220126083601 49 33 0.0 4.0 0.00 0.00 0.00 73 1021.4
20220126083058 49 32 1.0 2.0 0.00 0.00 0.00 73 1021.4
20220126082546 48 29 0.0 2.0 0.00 0.00 0.00 74 1021.4
20220126082057 48 31 0.0 1.0 0.00 0.00 0.00 74 1021.3
20220126081557 48 24 0.0 4.0 0.00 0.00 0.00 74 1021.4
20220126081041 48 24 0.0 5.0 0.00 0.00 0.00 74 1021.4
20220126080539 49 24 2.0 5.0 0.00 0.00 0.00 74 1021.4
20220126080115 49 45 1.0 3.0 0.00 0.00 0.00 74 1021.5
20220126075537 50 70 0.0 2.0 0.00 0.00 0.00 73 1021.4
20220126075058 50 71 0.0 2.0 0.00 0.00 0.00 72 1021.4
20220126074547 51 71 0.0 4.0 0.00 0.00 0.00 72 1021.2
20220126074036 51 71 0.0 4.0 0.00 0.00 0.00 72 1021.2
20220126073536 51 72 1.0 4.0 0.00 0.00 0.00 72 1021.2
20220126073110 51 76 1.0 4.0 0.00 0.00 0.00 72 1021.2
20220126072535 51 71 2.0 4.0 0.00 0.00 0.00 72 1021.1
20220126072035 51 70 2.0 3.0 0.00 0.00 0.00 72 1021.2
20220126071610 51 69 1.0 5.0 0.00 0.00 0.00 72 1021.3
20220126071034 51 70 2.0 4.0 0.00 0.00 0.00 71 1021.2
20220126070534 52 71 2.0 4.0 0.00 0.00 0.00 71 1021.2
20220126070128 52 67 1.0 4.0 0.00 0.00 0.00 71 1021.1
20220126065537 52 65 2.0 3.0 0.00 0.00 0.00 71 1021.1
20220126065037 52 62 2.0 3.0 0.00 0.00 0.00 71 1021.0
20220126064546 52 64 2.0 3.0 0.00 0.00 0.00 72 1020.9
20220126064030 51 76 2.0 5.0 0.00 0.00 0.00 72 1020.8
20220126063533 51 73 2.0 5.0 0.00 0.00 0.00 72 1020.8
20220126063108 51 88 2.0 3.0 0.00 0.00 0.00 72 1020.9
20220126062530 51 74 2.0 3.0 0.00 0.00 0.00 73 1020.8
20220126062030 51 74 2.0 5.0 0.00 0.00 0.00 73 1020.8
20220126061528 51 79 3.0 5.0 0.00 0.00 0.00 74 1020.7
20220126061042 51 70 2.0 3.0 0.00 0.00 0.00 74 1020.6
20220126060527 51 83 1.0 3.0 0.00 0.00 0.00 74 1020.6
20220126060029 51 97 1.0 3.0 0.00 0.00 0.00 74 1020.6
20220126055527 51 94 1.0 7.0 0.00 0.00 0.00 74 1020.4
20220126055032 51 94 2.0 7.0 0.00 0.00 0.00 73 1020.4
20220126054723 51 109 2.0 3.0 0.00 0.00 0.00 74 1020.3
20220126054026 51 92 1.0 4.0 0.00 0.00 0.00 74 1020.2
20220126053525 51 104 1.0 3.0 0.00 0.00 0.00 75 1020.1
20220126053041 51 64 1.0 3.0 0.00 0.00 0.00 75 1020.1
20220126052526 51 61 1.0 3.0 0.00 0.00 0.00 75 1020.1
20220126052025 51 134 1.0 2.0 0.00 0.00 0.00 75 1019.9
20220126051530 51 136 1.0 2.0 0.00 0.00 0.00 75 1019.9
20220126051025 51 111 1.0 2.0 0.00 0.00 0.00 75 1019.7
20220126050524 51 111 1.0 3.0 0.00 0.00 0.00 75 1019.7
20220126050029 51 115 1.0 4.0 0.00 0.00 0.00 75 1019.5
20220126045537 51 115 1.0 2.0 0.00 0.00 0.00 74 1019.5
20220126045024 51 115 1.0 5.0 0.00 0.00 0.00 74 1019.3
20220126044542 51 116 1.0 5.0 0.00 0.00 0.00 73 1019.4
20220126044024 51 109 1.0 5.0 0.00 0.00 0.00 73 1019.2
20220126043524 51 119 3.0 5.0 0.00 0.00 0.00 73 1019.2
20220126043058 51 103 1.0 5.0 0.00 0.00 0.00 73 1019.2
20220126042525 52 109 2.0 5.0 0.00 0.00 0.00 73 1019.1
20220126042023 52 59 1.0 5.0 0.00 0.00 0.00 72 1019.0
20220126041529 52 108 2.0 5.0 0.00 0.00 0.00 72 1019.0
20220126041023 52 96 2.0 6.0 0.00 0.00 0.00 72 1019.0
20220126040521 52 78 2.0 6.0 0.00 0.00 0.00 72 1019.0
20220126040036 52 118 2.0 5.0 0.00 0.00 0.00 72 1018.9
20220126035533 52 118 2.0 5.0 0.00 0.00 0.00 73 1018.8
20220126035023 51 117 1.0 5.0 0.00 0.00 0.00 73 1018.8
20220126034526 52 114 2.0 5.0 0.00 0.00 0.00 72 1018.9
20220126034025 52 123 1.0 5.0 0.00 0.00 0.00 72 1018.8
20220126031742 52 165 0.0 2.0 0.00 0.00 0.00 71 1018.7
20220126031055 52 163 0.0 4.0 0.00 0.00 0.00 71 1018.6
20220126030605 53 166 2.0 5.0 0.00 0.00 0.00 71 1018.6
20220126030123 52 163 1.0 3.0 0.00 0.00 0.00 72 1018.5
20220126025630 52 122 0.0 5.0 0.00 0.00 0.00 71 1018.5
20220126025054 52 120 2.0 5.0 0.00 0.00 0.00 72 1018.4
20220126024716 52 137 1.0 3.0 0.00 0.00 0.00 72 1018.4
20220126024054 52 159 1.0 5.0 0.00 0.00 0.00 73 1018.3
20220126023558 52 159 0.0 6.0 0.00 0.00 0.00 73 1018.4
20220126023151 53 162 3.0 7.0 0.00 0.00 0.00 73 1018.2
20220126022553 53 163 5.0 9.0 0.00 0.00 0.00 72 1018.2
20220126022053 53 140 3.0 9.0 0.00 0.00 0.00 71 1018.1
20220126021643 53 165 3.0 9.0 0.00 0.00 0.00 71 1018.2
20220126021058 54 154 4.0 9.0 0.00 0.00 0.00 68 1018.1
20220126020552 54 167 5.0 9.0 0.00 0.00 0.00 67 1018.1
20220126020155 54 161 6.0 8.0 0.00 0.00 0.00 66 1018.1
20220126015607 54 135 2.0 7.0 0.00 0.00 0.00 66 1018.0
20220126015057 54 152 4.0 6.0 0.00 0.00 0.00 65 1017.9
20220126014623 55 123 3.0 8.0 0.00 0.00 0.00 65 1017.8
20220126014114 55 153 3.0 8.0 0.00 0.00 0.00 64 1017.7
20220126013550 55 151 5.0 9.0 0.00 0.00 0.00 63 1017.8
20220126013126 56 166 6.0 9.0 0.00 0.00 0.00 62 1017.7
20220126012552 56 157 5.0 8.0 0.00 0.00 0.00 62 1017.7
20220126012055 57 165 4.0 8.0 0.00 0.00 0.00 61 1017.6
20220126011549 57 165 5.0 8.0 0.00 0.00 0.00 60 1017.6
20220126011048 58 148 2.0 7.0 0.00 0.00 0.00 59 1017.6
20220126010548 58 159 3.0 7.0 0.00 0.00 0.00 59 1017.6
20220126010105 59 152 4.0 7.0 0.00 0.00 0.00 58 1017.6
20220126005547 59 167 3.0 7.0 0.00 0.00 0.00 57 1017.5
20220126005052 59 183 4.0 8.0 0.00 0.00 0.00 56 1017.7
20220126004600 59 160 5.0 9.0 0.00 0.00 0.00 56 1017.5
20220126004052 60 162 6.0 11.0 0.00 0.00 0.00 55 1017.5
20220126003546 61 187 6.0 11.0 0.00 0.00 0.00 53 1017.3
20220126003144 63 182 6.0 10.0 0.00 0.00 0.00 49 1017.3
20220126002550 65 217 5.0 8.0 0.00 0.00 0.00 36 1017.2
20220126002045 66 251 5.0 8.0 0.00 0.00 0.00 35 1017.1
20220126001622 66 242 2.0 8.0 0.00 0.00 0.00 35 1017.0
20220126001107 66 277 2.0 10.0 0.00 0.00 0.00 36 1017.1
20220126000545 66 309 4.0 10.0 0.00 0.00 0.00 34 1017.0
20220126000154 67 306 2.0 7.0 0.00 0.00 0.00 36 1017.0
20220125235551 66 296 4.0 7.0 0.00 0.00 0.00 36 1017.0
20220125235044 66 255 4.0 9.0 0.00 0.00 0.00 37 1017.0
20220125234634 66 275 5.0 11.0 0.00 0.00 0.00 37 1017.0
20220125234048 66 234 6.0 11.0 0.00 0.00 0.00 36 1016.9
20220125233544 67 285 6.0 9.0 0.00 0.00 0.00 36 1016.8
20220125233102 67 284 4.0 11.0 0.00 0.00 0.00 36 1016.8
20220125232545 66 234 7.0 11.0 0.00 0.00 0.00 36 1016.8
20220125232136 67 259 5.0 9.0 0.00 0.00 0.00 36 1016.8
20220125231621 67 283 3.0 9.0 0.00 0.00 0.00 38 1016.8
20220125231042 67 283 4.0 9.0 0.00 0.00 0.00 36 1016.8
20220125230604 67 279 3.0 7.0 0.00 0.00 0.00 37 1016.7
20220125230106 67 291 3.0 8.0 0.00 0.00 0.00 37 1016.6
20220125225541 67 284 4.0 8.0 0.00 0.00 0.00 37 1016.5
20220125225047 67 281 3.0 8.0 0.00 0.00 0.00 37 1016.6
20220125224620 66 261 3.0 9.0 0.00 0.00 0.00 40 1016.5
20220125224039 66 276 5.0 10.0 0.00 0.00 0.00 39 1016.6
20220125223541 66 306 3.0 10.0 0.00 0.00 0.00 40 1016.6
20220125223130 65 307 4.0 9.0 0.00 0.00 0.00 46 1016.5
20220125222535 64 190 3.0 9.0 0.00 0.00 0.00 47 1016.5
20220125222034 63 209 5.0 9.0 0.00 0.00 0.00 51 1016.6
20220125221545 63 204 7.0 10.0 0.00 0.00 0.00 49 1016.5
20220125221034 64 211 5.0 10.0 0.00 0.00 0.00 50 1016.5
20220125220532 63 245 6.0 10.0 0.00 0.00 0.00 50 1016.7
20220125220056 64 202 3.0 8.0 0.00 0.00 0.00 52 1016.7
20220125215535 63 235 3.0 8.0 0.00 0.00 0.00 52 1016.6
20220125215030 63 227 5.0 8.0 0.00 0.00 0.00 52 1016.8
20220125214556 63 263 5.0 8.0 0.00 0.00 0.00 52 1016.9
20220125214029 63 216 6.0 8.0 0.00 0.00 0.00 52 1016.9
20220125213528 63 280 1.0 9.0 0.00 0.00 0.00 52 1016.9
20220125213037 62 289 5.0 9.0 0.00 0.00 0.00 51 1017.0
20220125212529 62 242 5.0 8.0 0.00 0.00 0.00 53 1017.0
20220125212026 61 238 4.0 7.0 0.00 0.00 0.00 56 1017.1
20220125211558 61 252 3.0 6.0 0.00 0.00 0.00 56 1017.1
20220125211024 61 277 4.0 7.0 0.00 0.00 0.00 57 1017.1
20220125210528 60 198 2.0 8.0 0.00 0.00 0.00 60 1017.2
20220125210022 60 190 3.0 7.0 0.00 0.00 0.00 58 1017.2
20220125205518 59 188 2.0 6.0 0.00 0.00 0.00 61 1017.2
20220125205022 59 202 5.0 6.0 0.00 0.00 0.00 59 1017.4
20220125204518 59 194 3.0 6.0 0.00 0.00 0.00 60 1017.4
20220125204017 59 240 3.0 8.0 0.00 0.00 0.00 59 1017.5
20220125203516 58 217 5.0 8.0 0.00 0.00 0.00 62 1017.6
20220125203034 58 209 2.0 7.0 0.00 0.00 0.00 63 1017.6
20220125202519 57 223 4.0 7.0 0.00 0.00 0.00 62 1017.6
20220125202012 56 250 4.0 9.0 0.00 0.00 0.00 63 1017.8
20220125201609 56 268 4.0 9.0 0.00 0.00 0.00 63 1017.8
20220125201030 57 223 4.0 7.0 0.00 0.00 0.00 64 1018.0
20220125200509 56 275 2.0 5.0 0.00 0.00 0.00 63 1017.9
20220125200023 56 257 2.0 6.0 0.00 0.00 0.00 64 1018.0
20220125195535 56 258 1.0 6.0 0.00 0.00 0.00 64 1018.1
20220125195006 55 223 0.0 6.0 0.00 0.00 0.00 65 1018.2
20220125194531 55 222 4.0 7.0 0.00 0.00 0.00 65 1018.3
20220125194004 55 227 3.0 6.0 0.00 0.00 0.00 65 1018.3
20220125193506 54 250 1.0 6.0 0.00 0.00 0.00 66 1018.4
20220125193004 54 239 4.0 6.0 0.00 0.00 0.00 65 1018.4
20220125192502 54 279 3.0 5.0 0.00 0.00 0.00 65 1018.5
20220125192103 54 275 1.0 5.0 0.00 0.00 0.00 65 1018.5
20220125191634 54 277 3.0 7.0 0.00 0.00 0.00 64 1018.7
20220125191058 54 216 4.0 7.0 0.00 0.00 0.00 64 1018.8
20220125190558 53 261 1.0 3.0 0.00 0.00 0.00 64 1018.9
20220125190237 53 265 1.0 5.0 0.00 0.00 0.00 66 1019.0
20220125185612 53 223 1.0 4.0 0.00 0.00 0.00 65 1019.1
20220125185103 52 257 1.0 6.0 0.00 0.00 0.00 66 1019.0
20220125184733 52 257 1.0 6.0 0.00 0.00 0.00 67 1019.2
20220125184051 52 265 2.0 6.0 0.00 0.00 0.00 67 1019.2
20220125183557 52 241 2.0 7.0 0.00 0.00 0.00 65 1019.1
20220125183120 52 270 4.0 7.0 0.00 0.00 0.00 65 1019.3
20220125182550 51 265 1.0 3.0 0.00 0.00 0.00 66 1019.2
20220125182056 51 234 1.0 3.0 0.00 0.00 0.00 66 1019.3
20220125181659 51 227 1.0 4.0 0.00 0.00 0.00 68 1019.3
20220125181046 50 219 0.0 2.0 0.00 0.00 0.00 69 1019.3
20220125180550 49 219 1.0 4.0 0.00 0.00 0.00 70 1019.3
20220125180148 48 218 1.0 4.0 0.00 0.00 0.00 70 1019.4
20220125175608 48 196 1.0 5.0 0.00 0.00 0.00 70 1019.4
20220125175044 48 178 2.0 5.0 0.00 0.00 0.00 70 1019.3
20220125174807 48 186 2.0 5.0 0.00 0.00 0.00 71 1019.2
20220125174048 47 222 2.0 5.0 0.00 0.00 0.00 72 1019.3
20220125173544 47 206 3.0 5.0 0.00 0.00 0.00 73 1019.2
20220125173238 47 242 1.0 4.0 0.00 0.00 0.00 71 1019.3
20220125172604 47 244 0.0 4.0 0.00 0.00 0.00 71 1019.2
20220125172045 46 264 0.0 4.0 0.00 0.00 0.00 72 1019.3
20220125171628 46 267 1.0 3.0 0.00 0.00 0.00 70 1019.3
20220125171043 46 277 1.0 3.0 0.00 0.00 0.00 71 1019.3
20220125170600 46 246 0.0 2.0 0.00 0.00 0.00 73 1019.4
20220125170112 46 244 0.0 2.0 0.00 0.00 0.00 72 1019.3
20220125165541 46 209 0.0 5.0 0.00 0.00 0.00 72 1019.3
20220125165042 45 207 1.0 5.0 0.00 0.00 0.00 72 1019.4
20220125164543 46 209 0.0 2.0 0.00 0.00 0.00 72 1019.3
20220125164041 45 208 0.0 2.0 0.00 0.00 0.00 74 1019.3
20220125163545 44 208 1.0 3.0 0.00 0.00 0.00 73 1019.3
20220125163129 44 210 1.0 3.0 0.00 0.00 0.00 73 1019.4
20220125162544 44 26 0.0 4.0 0.00 0.00 0.00 75 1019.3
20220125162041 44 54 0.0 1.0 0.00 0.00 0.00 75 1019.3
20220125161614 44 54 0.0 1.0 0.00 0.00 0.00 76 1019.2
20220125161040 43 54 0.0 1.0 0.00 0.00 0.00 76 1019.4
20220125160543 43 53 0.0 2.0 0.00 0.00 0.00 75 1019.3
20220125160104 43 53 0.0 2.0 0.00 0.00 0.00 74 1019.4
20220125155549 44 53 0.0 2.0 0.00 0.00 0.00 75 1019.5
20220125155040 43 54 0.0 2.0 0.00 0.00 0.00 76 1019.4
20220125154736 42 52 0.0 1.0 0.00 0.00 0.00 76 1019.4
20220125154039 42 52 0.0 1.0 0.00 0.00 0.00 75 1019.6
20220125153547 42 52 0.0 1.0 0.00 0.00 0.00 76 1019.6
20220125153125 43 52 0.0 1.0 0.00 0.00 0.00 78 1019.5
20220125152538 42 52 0.0 0.0 0.00 0.00 0.00 76 1019.5
20220125152039 42 52 0.0 2.0 0.00 0.00 0.00 75 1019.4
20220125151549 42 52 0.0 2.0 0.00 0.00 0.00 75 1019.5
20220125151102 43 54 0.0 2.0 0.00 0.00 0.00 75 1019.4
20220125150539 43 51 0.0 2.0 0.00 0.00 0.00 75 1019.4
20220125150151 43 51 0.0 1.0 0.00 0.00 0.00 75 1019.4
20220125145537 43 52 0.0 1.0 0.00 0.00 0.00 75 1019.4
20220125145044 43 52 0.0 1.0 0.00 0.00 0.00 74 1019.6
20220125144612 43 51 0.0 1.0 0.00 0.00 0.00 74 1019.6
20220125144036 43 51 0.0 1.0 0.00 0.00 0.00 75 1019.5
20220125143538 43 51 0.0 2.0 0.00 0.00 0.00 74 1019.5
20220125143131 43 51 0.0 2.0 0.00 0.00 0.00 73 1019.4
20220125142537 43 51 0.0 1.0 0.00 0.00 0.00 73 1019.4
20220125142036 43 50 0.0 2.0 0.00 0.00 0.00 73 1019.2
20220125141602 43 51 1.0 2.0 0.00 0.00 0.00 74 1019.4
20220125141039 43 51 1.0 2.0 0.00 0.00 0.00 74 1019.3
20220125140535 43 50 0.0 2.0 0.00 0.00 0.00 75 1019.4
20220125140139 42 50 1.0 2.0 0.00 0.00 0.00 75 1019.4
20220125135548 42 50 0.0 3.0 0.00 0.00 0.00 75 1019.4
20220125135039 43 51 0.0 4.0 0.00 0.00 0.00 75 1019.3
20220125134542 43 51 1.0 2.0 0.00 0.00 0.00 74 1019.3
20220125134040 43 53 0.0 2.0 0.00 0.00 0.00 73 1019.2
20220125133605 43 53 0.0 2.0 0.00 0.00 0.00 73 1019.2